Hourly Data Report for March 31, 2003

SHERBROOKE A
QUEBEC

45°26'00.000" N
71°41'00.000" W
241.40 m
7028124
71610
YSC

Download Data

Hourly Data (March 2003)
Hourly Data Report for March 31, 2003
TIME
LST
Temp Definition
°C
Dew Point Definition
°C
Rel Hum Definition
%
Precip. Amount Definition
mm

Wind Dir Definition
10's deg

Wind Spd Definition
km/h
Visibility Definition
km
Stn Press Definition
kPa
Hmdx Definition


Wind Chill Definition


Weather Definition


00:00 -4.0 -5.8 87   30 7 3.4 97.99   -7 Snow
01:00 -4.3 -5.9 89   30 9 2.4 97.93   -8 Snow
02:00 -4.7 -6.2 89   31 11 2.3 97.84   -9 Snow
03:00 -5.0 -6.7 88   30 11 12.9 97.77   -10 Snow
04:00 -5.4 -7.3 86   31 11 11.3 97.82   -10 Snow
05:00 -6.0 -8.0 86   36 9 6.4 97.81   -10 Snow
06:00 -6.5 -8.7 84   32 17 6.4 97.76   -13 Snow
07:00 -6.8 -9.0 84   29 13 8.0 97.74   -12 Snow
08:00 -7.1 -9.5 83   30 13 12.9 97.84   -13 Snow
09:00 -7.2 -10.1 80   30 19 16.1 97.80   -14 Snow Showers
10:00 -6.9 -10.9 73   29 20 11.3 97.71   -14 Snow Showers
11:00 -6.5 -10.9 71   29 22 24.1 97.69   -14 Snow Showers
12:00 -6.3 -11.7 65   27 26 24.1 97.70   -14 Cloudy
13:00 -5.6 -11.8 62   28 26 24.1 97.71   -13 Snow Showers
14:00 -4.3 -11.3 58   29 24 24.1 97.66   -11 Snow Showers
15:00 -4.7 -12.3 55   29 26 24.1 97.66   -12 Mostly Cloudy
16:00 -4.6 -12.8 53   27 26 24.1 97.68   -12 Mostly Cloudy
17:00 -4.6 -13.6 49   27 28 24.1 97.73   -12 Mostly Cloudy
18:00 -5.1 -13.8 50   26 19 15.0 97.79   -12  
19:00 -6.5 -14.2 54   24 11 15.0 97.86   -11  
20:00 -7.3 -14.7 55   26 13 15.0 97.95   -13  
21:00 -8.5 -15.3 58   26 11 15.0 98.04   -14  
22:00 -10.3 -15.6 65   25 7 15.0 98.09   -14  
23:00 -10.9 -16.0 66   26 9 15.0 98.16   -16  

Notes on Data Quality.

Legend

  • E = Estimated
  • M = Missing
  • NA = Not Available*
  • [empty] = Indicates an unobserved value
Date modified: